Weather History for MMTP - September, 2013

Change the Weather History Date:

Wednesday, September 11, 2013

  Actual Average Record
Temperature  
Mean Temperature 80 °F -  
Max Temperature 86 °F 86 °F 89 °F (1996)
Min Temperature 73 °F 73 °F 71 °F (2004)
Cooling Degree Days 14    
Growing Degree Days 30 (Base 50)    
Moisture  
Dew Point 75 °F    
Average Humidity 90    
Maximum Humidity 100    
Minimum Humidity 74    
Precipitation  
Precipitation 0.00 in - - ()
Sea Level Pressure  
Sea Level Pressure 29.80 in    
Wind  
Wind Speed 4 mph ()    
Max Wind Speed 25 mph    
Max Gust Speed -    
Visibility 8.1 miles    
Events Rain    
Averages and records for this station are not official NWS values.
T = Trace of Precipitation, MM = Missing Value Source: Averaged Metar Reports

Daily Weather History Graph

Daily Weather History Graph

Search for Another Location

Airport or City:

Trip Planner

Search our weather history database for the weather conditions in past years. The results will help you decide how hot, cold, wet, or windy it might be!

Date:

Astronomy

Sep. 11, 2013 Rise Set
Actual Time 6:57 AM CDT 7:13 PM CDT
Civil Twilight 6:36 AM CDT 7:35 PM CDT
Nautical Twilight 6:11 AM CDT 8:00 PM CDT
Astronomical Twilight 5:46 AM CDT 8:25 PM CDT
Moon 12:27 PM CDT (9/11) No Moon Set
Length of Visible Light 12h 58m
Length of Day
12h 15m
Waxing Crescent, 39% of the Moon is Illuminated
Sep 11
Waxing Crescent
Sep 12
First Quarter
Sep 19
Full
Sep 26
Last Quarter
Oct 4
New

Hourly Weather History & Observations

Time (CDT) Temp. Heat Index Dew Point Humidity Pressure Visibility Wind Dir Wind Speed Gust Speed Precip Events Conditions
12:57 AM 75.2 °F - 75.2 °F 100% 29.81 in 6.0 mi Calm Calm - N/A   Overcast
1:45 AM 75.2 °F - 73.4 °F 94% 29.83 in 8.0 mi Calm Calm - N/A   Mostly Cloudy
2:40 AM 75.2 °F - 73.4 °F 94% 29.81 in 8.0 mi Calm Calm - N/A   Mostly Cloudy
3:40 AM 75.2 °F - 73.4 °F 94% 29.77 in 8.0 mi Calm Calm - N/A   Mostly Cloudy
4:40 AM 75.2 °F - 73.4 °F 94% 29.78 in 8.0 mi Calm Calm - N/A   Mostly Cloudy
5:40 AM 75.2 °F - 73.4 °F 94% 29.78 in 8.0 mi Calm Calm - N/A   Scattered Clouds
6:40 AM 75.2 °F - 71.6 °F 89% 29.73 in 8.0 mi Calm Calm - N/A   Scattered Clouds
7:43 AM 73.4 °F - 71.6 °F 94% 29.81 in 15.0 mi Calm Calm - N/A   Mostly Cloudy
8:01 AM 73.4 °F - 71.6 °F 94% 29.81 in 15.0 mi Calm Calm - N/A   Mostly Cloudy
8:41 AM 77.0 °F - 73.4 °F 89% 29.83 in 15.0 mi Calm Calm - N/A   Scattered Clouds
9:47 AM 82.4 °F 89.5 °F 75.2 °F 79% 29.82 in 15.0 mi East 6.9 mph - N/A   Scattered Clouds
10:43 AM 84.2 °F 92.3 °F 75.2 °F 74% 29.85 in 15.0 mi East 3.5 mph - N/A   Partly Cloudy
11:41 AM 86.0 °F 96.9 °F 77.0 °F 74% 29.85 in 10.0 mi East 3.5 mph - N/A   Mostly Cloudy
11:42 AM 86.0 °F 96.9 °F 77.0 °F 74% 29.85 in 10.0 mi East 3.5 mph - N/A   Mostly Cloudy
12:43 PM 86.0 °F 96.9 °F 77.0 °F 74% 29.80 in 10.0 mi South 3.5 mph - N/A   Mostly Cloudy
1:30 PM 78.8 °F - 75.2 °F 89% 29.82 in 2.0 mi South 17.3 mph - N/A Rain Rain
1:49 PM 77.0 °F - 75.2 °F 94% 29.81 in 4.0 mi South 8.1 mph - N/A   Mostly Cloudy
2:40 PM 78.8 °F - 77.0 °F 94% 29.79 in 8.0 mi Calm Calm - N/A   Mostly Cloudy
3:40 PM 82.4 °F 92.4 °F 78.8 °F 89% 29.79 in 8.0 mi South 10.4 mph - N/A   Mostly Cloudy
4:40 PM 84.2 °F 96.1 °F 78.8 °F 84% 29.77 in 8.0 mi South 15.0 mph - N/A   Mostly Cloudy
5:40 PM 80.6 °F 86.2 °F 75.2 °F 84% 29.77 in - East 6.9 mph - N/A   Mostly Cloudy
5:43 PM 80.6 °F 86.2 °F 75.2 °F 84% 29.77 in 7.0 mi East 6.9 mph - N/A   Mostly Cloudy
6:06 PM 75.2 °F - 73.4 °F 94% 29.79 in 6.0 mi ESE 25.3 mph - N/A Rain Rain
6:16 PM 75.2 °F - 73.4 °F 94% 29.79 in 3.0 mi ESE 17.3 mph - N/A Rain Rain
6:40 PM 75.2 °F - 73.4 °F 94% 29.76 in 4.0 mi SSE 16.1 mph - N/A Rain Rain
7:40 PM 75.2 °F - 73.4 °F 94% 29.80 in 5.0 mi East 6.9 mph - N/A Rain Rain
8:40 PM 77.0 °F - 75.2 °F 94% 29.83 in 5.0 mi East 5.8 mph - N/A Rain Rain
9:40 PM 77.0 °F - 75.2 °F 94% 29.77 in 6.0 mi East 5.8 mph - N/A   Overcast
10:00 PM 75.2 °F - 75.2 °F 100% 29.86 in 4.0 mi East 5.8 mph - N/A Rain Rain
10:40 PM 75.2 °F - 75.2 °F 100% 29.86 in 6.0 mi East 5.8 mph - N/A   Overcast